Retour au catalogue

STARLINK-37575

ActifCommunicationsVLEO
NORAD 69454·PAYLOAD·🇺🇸 United States

Lancé Jun 8, 2026 depuis Cape Canaveral Space Force Station

Loading…

Prochains Passages (prochaines 24 heures)

TLE

FraisSource: CelesTrak SupGP

Époque: Sep 14, 2026, 23:03 UTC

1 69454C 26127M   26257.96090278 -.00031553  00000+0 -93200-3 0  2571
2 69454  53.1581 191.8966 0001360  90.1998  58.1655 15.34414811    12

Suivez STARLINK-37575 en temps réel avec AllMySat

Download on the App Store